Time,TemperatureF,DewpointF,PressureIn,WindDirection,WindDirectionDegrees,WindSpeedMPH,WindSpeedGustMPH,Humidity,HourlyPrecipIn,Conditions,Clouds,dailyrainin,SoftwareType,DateUTC
2013-08-17 00:01:00,65.6,63.5,30.09,SSE,164,0.0,1.0,93,0.00,RA,,0.00,WeatherDisplay:10.37,2013-08-17 04:01:00,
2013-08-17 00:10:00,65.4,63.3,30.09,SSE,164,0.0,1.0,93,0.00,OVC,,0.00,WeatherDisplay:10.37,2013-08-17 04:10:00,
2013-08-17 00:20:00,65.1,63.0,30.09,SSE,164,0.0,0.0,93,0.00,OVC,,0.00,WeatherDisplay:10.37,2013-08-17 04:20:00,
2013-08-17 00:31:00,64.8,63.0,30.09,SSE,163,0.0,0.0,94,0.00,OVC,,0.00,WeatherDisplay:10.37,2013-08-17 04:31:00,
2013-08-17 00:41:00,64.6,62.8,30.08,SSE,164,0.0,0.0,94,0.00,OVC,,0.00,WeatherDisplay:10.37,2013-08-17 04:41:00,
2013-08-17 00:51:00,64.4,62.9,30.09,SSE,164,0.0,0.0,95,0.00,OVC,,0.00,WeatherDisplay:10.37,2013-08-17 04:51:00,
2013-08-17 01:01:00,64.4,62.9,30.09,SSE,164,0.0,0.0,95,0.00,OVC,,0.00,WeatherDisplay:10.37,2013-08-17 05:01:00,
2013-08-17 01:11:00,64.5,63.3,30.09,SSE,163,0.0,0.0,96,0.00,OVC,,0.00,WeatherDisplay:10.37,2013-08-17 05:11:00,
2013-08-17 01:21:00,64.6,63.4,30.09,SSE,164,0.0,0.0,96,0.00,OVC,,0.00,WeatherDisplay:10.37,2013-08-17 05:21:00,
2013-08-17 01:31:00,64.6,63.5,30.09,SSE,163,0.0,0.0,96,0.00,OVC,,0.00,WeatherDisplay:10.37,2013-08-17 05:31:00,
2013-08-17 01:41:00,64.7,63.5,30.09,SSE,164,0.0,0.0,96,0.00,OVC,,0.00,WeatherDisplay:10.37,2013-08-17 05:41:00,
2013-08-17 01:50:00,64.9,63.7,30.09,SSE,164,0.0,0.0,96,0.00,OVC,,0.00,WeatherDisplay:10.37,2013-08-17 05:50:00,
2013-08-17 02:01:00,65.0,63.8,30.09,SSE,164,0.0,0.0,96,0.00,OVC,,0.00,WeatherDisplay:10.37,2013-08-17 06:01:00,
2013-08-17 02:11:00,65.1,63.9,30.09,SSE,164,0.0,0.0,96,0.00,OVC,,0.00,WeatherDisplay:10.37,2013-08-17 06:11:00,
2013-08-17 02:20:00,65.2,64.0,30.08,SSE,164,0.0,1.0,96,0.00,OVC,,0.00,WeatherDisplay:10.37,2013-08-17 06:20:00,
2013-08-17 02:31:00,65.3,64.1,30.09,South,170,0.0,1.0,96,0.00,OVC,,0.00,WeatherDisplay:10.37,2013-08-17 06:31:00,
2013-08-17 02:40:00,65.4,63.9,30.08,South,170,0.0,0.0,95,0.00,OVC,,0.00,WeatherDisplay:10.37,2013-08-17 06:40:00,
2013-08-17 02:50:00,65.4,63.9,30.08,South,170,0.0,1.0,95,0.00,OVC,,0.00,WeatherDisplay:10.37,2013-08-17 06:50:00,
2013-08-17 03:01:00,65.3,63.5,30.08,South,170,0.0,0.0,94,0.00,OVC,,0.00,WeatherDisplay:10.37,2013-08-17 07:01:00,
2013-08-17 03:11:00,65.3,63.5,30.08,South,170,0.0,0.0,94,0.00,OVC,,0.00,WeatherDisplay:10.37,2013-08-17 07:11:00,
2013-08-17 03:21:00,65.4,63.6,30.08,South,170,0.0,0.0,94,0.00,OVC,,0.00,WeatherDisplay:10.37,2013-08-17 07:21:00,
2013-08-17 03:31:00,65.4,63.6,30.08,South,170,0.0,0.0,94,0.00,OVC,,0.00,WeatherDisplay:10.37,2013-08-17 07:31:00,
2013-08-17 03:40:00,65.5,64.0,30.08,South,170,0.0,0.0,95,0.00,OVC,,0.00,WeatherDisplay:10.37,2013-08-17 07:40:00,
2013-08-17 03:51:00,65.4,63.9,30.08,South,170,0.0,0.0,95,0.00,OVC,,0.00,WeatherDisplay:10.37,2013-08-17 07:51:00,
2013-08-17 04:01:00,65.4,63.6,30.07,South,170,0.0,0.0,94,0.00,OVC,,0.00,WeatherDisplay:10.37,2013-08-17 08:01:00,
2013-08-17 04:10:00,65.4,63.6,30.08,South,170,0.0,0.0,94,0.00,OVC,,0.00,WeatherDisplay:10.37,2013-08-17 08:10:00,
2013-08-17 04:20:00,65.5,64.0,30.07,South,170,0.0,0.0,95,0.00,OVC,,0.00,WeatherDisplay:10.37,2013-08-17 08:20:00,
2013-08-17 04:31:00,65.5,64.0,30.07,South,170,0.0,0.0,95,0.00,OVC,,0.00,WeatherDisplay:10.37,2013-08-17 08:31:00,
2013-08-17 04:40:00,65.5,63.7,30.07,South,170,0.0,0.0,94,0.00,OVC,,0.00,WeatherDisplay:10.37,2013-08-17 08:40:00,
2013-08-17 04:50:00,65.4,63.6,30.07,South,170,0.0,0.0,94,0.00,OVC,,0.00,WeatherDisplay:10.37,2013-08-17 08:50:00,
2013-08-17 05:01:00,65.4,63.6,30.07,South,170,0.0,0.0,94,0.00,OVC,,0.00,WeatherDisplay:10.37,2013-08-17 09:01:00,
2013-08-17 05:10:00,65.4,63.6,30.07,South,170,0.0,0.0,94,0.00,OVC,,0.00,WeatherDisplay:10.37,2013-08-17 09:10:00,
2013-08-17 05:20:00,65.5,63.7,30.07,South,170,0.0,1.0,94,0.00,OVC,,0.00,WeatherDisplay:10.37,2013-08-17 09:20:00,
2013-08-17 05:31:00,65.5,63.7,30.07,South,170,0.0,0.0,94,0.00,OVC,,0.00,WeatherDisplay:10.37,2013-08-17 09:31:00,
2013-08-17 05:40:00,65.4,63.6,30.07,South,170,0.0,0.0,94,0.00,OVC,,0.00,WeatherDisplay:10.37,2013-08-17 09:40:00,
2013-08-17 05:50:00,65.2,63.1,30.07,South,170,0.0,0.0,93,0.00,OVC,,0.00,WeatherDisplay:10.37,2013-08-17 09:50:00,
2013-08-17 06:01:00,65.2,63.1,30.07,South,170,0.0,0.0,93,0.00,OVC,,0.00,WeatherDisplay:10.37,2013-08-17 10:01:00,
2013-08-17 06:10:00,65.2,63.1,30.07,South,170,0.0,0.0,93,0.00,OVC,,0.00,WeatherDisplay:10.37,2013-08-17 10:10:00,
2013-08-17 06:21:00,65.2,63.1,30.07,South,170,0.0,0.0,93,0.00,OVC,,0.00,WeatherDisplay:10.37,2013-08-17 10:21:00,
2013-08-17 06:31:00,65.2,63.1,30.07,South,170,0.0,0.0,93,0.00,OVC,,0.00,WeatherDisplay:10.37,2013-08-17 10:31:00,
2013-08-17 06:40:00,65.1,63.0,30.08,South,170,0.0,0.0,93,0.00,OVC,,0.00,WeatherDisplay:10.37,2013-08-17 10:40:00,
2013-08-17 06:50:00,65.1,63.0,30.08,South,170,0.0,0.0,93,0.00,OVC,,0.00,WeatherDisplay:10.37,2013-08-17 10:50:00,
2013-08-17 07:00:00,65.1,63.0,30.08,South,170,0.0,0.0,93,0.00,OVC,,0.00,WeatherDisplay:10.37,2013-08-17 11:00:00,
2013-08-17 07:10:00,65.1,63.0,30.08,South,170,0.0,0.0,93,0.00,OVC,,0.00,WeatherDisplay:10.37,2013-08-17 11:10:00,
2013-08-17 07:20:00,65.0,63.2,30.09,South,170,0.0,0.0,94,0.00,OVC,,0.00,WeatherDisplay:10.37,2013-08-17 11:20:00,
2013-08-17 07:30:00,65.0,63.2,30.09,South,170,0.0,0.0,94,0.00,OVC,,0.00,WeatherDisplay:10.37,2013-08-17 11:30:00,
2013-08-17 07:40:00,65.0,63.2,30.09,South,170,0.0,0.0,94,0.00,OVC,,0.00,WeatherDisplay:10.37,2013-08-17 11:40:00,
2013-08-17 07:50:00,65.1,63.3,30.09,South,170,0.0,0.0,94,0.00,OVC,,0.00,WeatherDisplay:10.37,2013-08-17 11:50:00,
2013-08-17 08:00:00,65.3,63.8,30.09,South,170,0.0,0.0,95,0.00,OVC,,0.00,WeatherDisplay:10.37,2013-08-17 12:00:00,
2013-08-17 08:10:00,65.5,64.0,30.09,South,170,0.0,0.0,95,0.00,OVC,,0.00,WeatherDisplay:10.37,2013-08-17 12:10:00,
2013-08-17 08:20:00,65.7,64.2,30.10,South,170,0.0,0.0,95,0.00,OVC,,0.00,WeatherDisplay:10.37,2013-08-17 12:20:00,
2013-08-17 08:30:00,65.8,63.7,30.10,South,170,0.0,0.0,93,0.00,OVC,,0.00,WeatherDisplay:10.37,2013-08-17 12:30:00,
2013-08-17 08:40:00,65.9,63.5,30.10,South,170,0.0,0.0,92,0.00,OVC,,0.00,WeatherDisplay:10.37,2013-08-17 12:40:00,
2013-08-17 08:50:00,66.0,63.3,30.10,South,170,0.0,1.0,91,0.00,OVC,,0.00,WeatherDisplay:10.37,2013-08-17 12:50:00,
2013-08-17 09:00:00,66.1,63.4,30.10,South,170,0.0,0.0,91,0.00,OVC,,0.00,WeatherDisplay:10.37,2013-08-17 13:00:00,
2013-08-17 09:10:00,66.3,63.9,30.10,South,170,0.0,0.0,92,0.00,OVC,,0.00,WeatherDisplay:10.37,2013-08-17 13:10:00,
2013-08-17 09:20:00,66.6,64.2,30.11,South,170,0.0,0.0,92,0.00,OVC,,0.00,WeatherDisplay:10.37,2013-08-17 13:20:00,
2013-08-17 09:30:00,66.8,63.8,30.11,SSE,150,0.0,1.0,90,0.00,OVC,,0.00,WeatherDisplay:10.37,2013-08-17 13:30:00,
2013-08-17 09:40:00,67.2,64.1,30.11,SE,130,0.0,0.0,90,0.00,OVC,,0.00,WeatherDisplay:10.37,2013-08-17 13:40:00,
2013-08-17 09:50:00,67.5,63.5,30.11,SE,130,0.0,4.0,87,0.00,OVC,,0.00,WeatherDisplay:10.37,2013-08-17 13:50:00,
2013-08-17 10:00:00,67.9,63.2,30.11,SW,225,0.0,4.0,85,0.00,OVC,,0.00,WeatherDisplay:10.37,2013-08-17 14:00:00,
2013-08-17 10:10:00,68.4,63.4,30.12,WSW,240,0.0,2.0,84,0.00,OVC,,0.00,WeatherDisplay:10.37,2013-08-17 14:10:00,
2013-08-17 10:20:00,68.9,63.6,30.12,WSW,240,0.0,3.0,83,0.00,OVC,,0.00,WeatherDisplay:10.37,2013-08-17 14:20:00,
2013-08-17 10:30:00,69.2,63.1,30.12,SW,236,2.0,4.0,81,0.00,OVC,,0.00,WeatherDisplay:10.37,2013-08-17 14:30:00,
2013-08-17 10:40:00,69.2,63.5,30.12,SW,235,1.0,5.0,82,0.00,OVC,,0.00,WeatherDisplay:10.37,2013-08-17 14:40:00,
2013-08-17 10:50:00,69.6,64.2,30.12,SW,235,0.0,1.0,83,0.00,OVC,,0.00,WeatherDisplay:10.37,2013-08-17 14:50:00,
2013-08-17 11:00:00,70.0,64.2,30.13,SW,234,2.0,4.0,82,0.00,OVC,,0.00,WeatherDisplay:10.37,2013-08-17 15:00:00,
2013-08-17 11:10:00,69.8,64.1,30.13,SW,234,1.0,3.0,82,0.00,OVC,,0.00,WeatherDisplay:10.37,2013-08-17 15:10:00,
2013-08-17 11:20:00,69.8,64.4,30.13,SW,234,0.0,4.0,83,0.00,OVC,,0.00,WeatherDisplay:10.37,2013-08-17 15:20:00,
2013-08-17 11:30:00,69.8,64.7,30.13,SW,234,0.0,1.0,84,0.00,OVC,,0.00,WeatherDisplay:10.37,2013-08-17 15:30:00,
2013-08-17 11:40:00,70.3,65.2,30.12,SW,234,0.0,2.0,84,0.00,OVC,,0.00,WeatherDisplay:10.37,2013-08-17 15:40:00,
2013-08-17 11:50:00,70.6,64.5,30.12,SW,236,0.0,3.0,81,0.00,OVC,,0.00,WeatherDisplay:10.37,2013-08-17 15:50:00,
2013-08-17 12:00:00,70.9,64.8,30.12,SW,236,0.0,1.0,81,0.00,OVC,,0.00,WeatherDisplay:10.37,2013-08-17 16:00:00,
2013-08-17 12:10:00,70.9,64.8,30.12,SW,234,1.0,6.0,81,0.00,OVC,,0.00,WeatherDisplay:10.37,2013-08-17 16:10:00,
2013-08-17 12:20:00,71.0,64.5,30.11,SW,229,0.0,3.0,80,0.00,OVC,,0.00,WeatherDisplay:10.37,2013-08-17 16:20:00,
2013-08-17 12:30:00,71.1,64.6,30.11,SW,229,0.0,4.0,80,0.00,OVC,,0.00,WeatherDisplay:10.37,2013-08-17 16:30:00,
2013-08-17 12:40:00,71.2,64.7,30.11,WSW,246,3.0,5.0,80,0.00,OVC,,0.00,WeatherDisplay:10.37,2013-08-17 16:40:00,
2013-08-17 12:50:00,70.7,64.3,30.11,WSW,254,0.0,5.0,80,0.00,OVC,,0.00,WeatherDisplay:10.37,2013-08-17 16:50:00,
2013-08-17 13:00:00,70.8,65.0,30.11,South,175,2.0,6.0,82,0.00,OVC,,0.00,WeatherDisplay:10.37,2013-08-17 17:00:00,
2013-08-17 13:10:00,71.0,64.5,30.10,SSE,161,2.0,5.0,80,0.00,OVC,,0.00,WeatherDisplay:10.37,2013-08-17 17:10:00,
2013-08-17 13:20:00,70.9,65.1,30.10,SE,142,1.0,5.0,82,0.00,OVC,,0.00,WeatherDisplay:10.37,2013-08-17 17:20:00,
2013-08-17 13:30:00,71.0,65.2,30.10,SE,128,0.0,4.0,82,0.00,OVC,,0.00,WeatherDisplay:10.37,2013-08-17 17:30:00,
2013-08-17 13:40:00,71.1,64.6,30.10,South,170,2.0,6.0,80,0.00,OVC,,0.00,WeatherDisplay:10.37,2013-08-17 17:40:00,
2013-08-17 13:50:00,70.9,64.4,30.09,SSE,153,1.0,9.0,80,0.00,OVC,,0.00,WeatherDisplay:10.37,2013-08-17 17:50:00,
2013-08-17 14:00:00,71.1,65.0,30.09,SSE,149,0.0,4.0,81,0.00,OVC,,0.00,WeatherDisplay:10.37,2013-08-17 18:00:00,
2013-08-17 14:10:00,71.2,65.4,30.09,SE,132,1.0,6.0,82,0.00,OVC,,0.00,WeatherDisplay:10.37,2013-08-17 18:10:00,
2013-08-17 14:20:00,71.1,63.9,30.10,SSE,168,3.0,6.0,78,0.00,OVC,,0.00,WeatherDisplay:10.37,2013-08-17 18:20:00,
2013-08-17 14:30:00,70.9,64.4,30.09,ESE,114,3.0,7.0,80,0.00,OVC,,0.00,WeatherDisplay:10.37,2013-08-17 18:30:00,
2013-08-17 14:40:00,70.5,63.7,30.09,SSW,194,0.0,6.0,79,0.00,OVC,,0.00,WeatherDisplay:10.37,2013-08-17 18:40:00,
2013-08-17 14:50:00,70.7,64.6,30.09,SSE,148,1.0,4.0,81,0.00,OVC,,0.00,WeatherDisplay:10.37,2013-08-17 18:50:00,
2013-08-17 15:00:00,71.2,64.7,30.09,SSE,147,0.0,4.0,80,0.00,OVC,,0.00,WeatherDisplay:10.37,2013-08-17 19:00:00,
2013-08-17 15:10:00,71.3,64.8,30.09,South,175,1.0,4.0,80,0.00,OVC,,0.00,WeatherDisplay:10.37,2013-08-17 19:10:00,
2013-08-17 15:20:00,71.2,64.4,30.09,SSW,201,0.0,9.0,79,0.00,OVC,,0.00,WeatherDisplay:10.37,2013-08-17 19:20:00,
2013-08-17 15:30:00,70.9,64.8,30.08,SSW,213,1.0,5.0,81,0.00,OVC,,0.00,WeatherDisplay:10.37,2013-08-17 19:30:00,
2013-08-17 15:40:00,70.7,64.2,30.08,South,174,3.0,7.0,80,0.00,OVC,,0.00,WeatherDisplay:10.37,2013-08-17 19:40:00,
2013-08-17 15:50:00,70.5,65.1,30.08,SW,227,2.0,6.0,83,0.00, +RA,,0.00,WeatherDisplay:10.37,2013-08-17 19:50:00,
2013-08-17 16:00:00,69.7,65.0,30.08,South,169,1.0,7.0,85,0.00, +RA,,0.00,WeatherDisplay:10.37,2013-08-17 20:00:00,
2013-08-17 16:10:00,68.8,65.1,30.08,WSW,242,3.0,8.0,88,0.00,-RA,,0.00,WeatherDisplay:10.37,2013-08-17 20:10:00,
2013-08-17 16:20:00,67.9,65.2,30.08,SW,230,1.0,6.0,91,0.01,-RA,,0.01,WeatherDisplay:10.37,2013-08-17 20:20:00,
2013-08-17 16:30:00,67.5,65.1,30.08,WSW,239,3.0,6.0,92,0.02,-RA,,0.03,WeatherDisplay:10.37,2013-08-17 20:30:00,
2013-08-17 16:40:00,67.1,65.0,30.08,SW,220,3.0,5.0,93,0.01,RA,,0.04,WeatherDisplay:10.37,2013-08-17 20:40:00,
2013-08-17 16:50:00,66.9,65.1,30.08,SW,215,1.0,5.0,94,0.00, +RA,,0.04,WeatherDisplay:10.37,2013-08-17 20:50:00,
2013-08-17 17:00:00,66.7,64.9,30.08,SSW,197,0.0,4.0,94,0.00, +RA,,0.04,WeatherDisplay:10.37,2013-08-17 21:00:00,
2013-08-17 17:10:00,66.7,65.2,30.09,SSW,198,1.0,3.0,95,0.02, +DZ,,0.06,WeatherDisplay:10.37,2013-08-17 21:10:00,
2013-08-17 17:20:00,66.5,64.7,30.09,SW,230,2.0,5.0,94,0.00, +DZ,,0.06,WeatherDisplay:10.37,2013-08-17 21:20:00,
2013-08-17 17:30:00,66.4,64.9,30.09,SW,234,0.0,5.0,95,0.00, +DZ,,0.06,WeatherDisplay:10.37,2013-08-17 21:30:00,
2013-08-17 17:40:00,66.3,64.8,30.08,South,188,0.0,5.0,95,0.00,OVC,,0.06,WeatherDisplay:10.37,2013-08-17 21:40:00,
2013-08-17 17:50:00,66.2,64.7,30.08,South,182,0.0,3.0,95,0.01,RA,,0.07,WeatherDisplay:10.37,2013-08-17 21:50:00,
2013-08-17 18:00:00,66.2,65.0,30.09,SW,226,0.0,5.0,96,0.02,RA,,0.09,WeatherDisplay:10.37,2013-08-17 22:00:00,
2013-08-17 18:10:00,66.2,65.0,30.09,SW,226,0.0,2.0,96,0.01, +DZ,,0.10,WeatherDisplay:10.37,2013-08-17 22:10:00,
2013-08-17 18:20:00,66.2,65.0,30.09,SW,226,0.0,3.0,96,0.01, +DZ,,0.11,WeatherDisplay:10.37,2013-08-17 22:20:00,
2013-08-17 18:30:00,66.1,64.9,30.09,SW,226,0.0,3.0,96,0.01, +DZ,,0.12,WeatherDisplay:10.37,2013-08-17 22:30:00,
2013-08-17 18:40:00,66.2,65.0,30.08,SW,226,0.0,3.0,96,0.00,OVC,,0.12,WeatherDisplay:10.37,2013-08-17 22:40:00,
2013-08-17 18:50:00,66.1,64.9,30.09,SW,226,0.0,2.0,96,0.00,-RA,,0.12,WeatherDisplay:10.37,2013-08-17 22:50:00,
2013-08-17 19:00:00,66.1,64.9,30.08,SW,226,0.0,1.0,96,0.00,-RA,,0.12,WeatherDisplay:10.37,2013-08-17 23:00:00,
2013-08-17 19:10:00,66.1,64.9,30.08,SW,226,0.0,1.0,96,0.00,-DZ,,0.12,WeatherDisplay:10.37,2013-08-17 23:10:00,
2013-08-17 19:20:00,66.1,64.9,30.08,SW,226,0.0,1.0,96,0.00,-DZ,,0.12,WeatherDisplay:10.37,2013-08-17 23:20:00,
2013-08-17 19:30:00,66.1,64.9,30.09,SW,226,0.0,1.0,96,0.00,-DZ,,0.12,WeatherDisplay:10.37,2013-08-17 23:30:00,
2013-08-17 19:40:00,66.0,64.8,30.09,SW,226,0.0,1.0,96,0.00,OVC,,0.12,WeatherDisplay:10.37,2013-08-17 23:40:00,
2013-08-17 19:50:00,66.1,64.9,30.09,SW,226,0.0,0.0,96,0.00,OVC,,0.12,WeatherDisplay:10.37,2013-08-17 23:50:00,
2013-08-17 20:00:00,66.1,64.9,30.09,SW,226,0.0,0.0,96,0.00,OVC,,0.12,WeatherDisplay:10.37,2013-08-18 00:00:00,
2013-08-17 20:10:00,66.1,64.9,30.09,SW,226,0.0,0.0,96,0.00,OVC,,0.12,WeatherDisplay:10.37,2013-08-18 00:10:00,
2013-08-17 20:20:00,66.1,64.9,30.10,SSW,213,0.0,0.0,96,0.00,OVC,,0.12,WeatherDisplay:10.37,2013-08-18 00:20:00,
2013-08-17 20:30:00,66.0,64.8,30.10,ESE,117,0.0,0.0,96,0.00,OVC,,0.12,WeatherDisplay:10.37,2013-08-18 00:30:00,
2013-08-17 20:40:00,65.9,64.8,30.10,ESE,117,0.0,0.0,96,0.00,OVC,,0.12,WeatherDisplay:10.37,2013-08-18 00:40:00,
2013-08-17 20:50:00,65.9,64.7,30.10,ESE,117,0.0,0.0,96,0.00,OVC,,0.12,WeatherDisplay:10.37,2013-08-18 00:50:00,
2013-08-17 21:00:00,65.8,64.6,30.10,ESE,117,0.0,0.0,96,0.00,OVC,,0.12,WeatherDisplay:10.37,2013-08-18 01:00:00,
2013-08-17 21:10:00,65.7,64.5,30.10,ESE,117,0.0,0.0,96,0.00,OVC,,0.12,WeatherDisplay:10.37,2013-08-18 01:10:00,
2013-08-17 21:20:00,65.6,64.4,30.10,ESE,117,0.0,0.0,96,0.00,OVC,,0.12,WeatherDisplay:10.37,2013-08-18 01:20:00,
2013-08-17 21:30:00,65.5,64.4,30.10,ESE,117,0.0,1.0,96,0.00,OVC,,0.12,WeatherDisplay:10.37,2013-08-18 01:30:00,
2013-08-17 21:40:00,65.4,64.5,30.10,ESE,117,0.0,1.0,97,0.00,OVC,,0.12,WeatherDisplay:10.37,2013-08-18 01:40:00,
2013-08-17 21:50:00,65.4,64.5,30.11,WSW,242,0.0,3.0,97,0.00,OVC,,0.12,WeatherDisplay:10.37,2013-08-18 01:50:00,
2013-08-17 22:00:00,65.4,64.5,30.11,WSW,251,0.0,2.0,97,0.00,OVC,,0.12,WeatherDisplay:10.37,2013-08-18 02:00:00,
2013-08-17 22:10:00,65.5,64.6,30.12,WSW,251,0.0,1.0,97,0.00,OVC,,0.12,WeatherDisplay:10.37,2013-08-18 02:10:00,
2013-08-17 22:20:00,65.6,64.7,30.12,WSW,251,0.0,2.0,97,0.00,OVC,,0.12,WeatherDisplay:10.37,2013-08-18 02:20:00,
2013-08-17 22:30:00,65.6,64.7,30.12,WSW,251,1.0,3.0,97,0.00,OVC,,0.12,WeatherDisplay:10.37,2013-08-18 02:30:00,
2013-08-17 22:40:00,65.6,64.7,30.12,WSW,250,0.0,3.0,97,0.00,OVC,,0.12,WeatherDisplay:10.37,2013-08-18 02:40:00,
2013-08-17 22:50:00,65.6,64.7,30.12,WSW,250,0.0,1.0,97,0.00,OVC,,0.12,WeatherDisplay:10.37,2013-08-18 02:50:00,
2013-08-17 23:00:00,65.5,64.6,30.12,WSW,250,0.0,1.0,97,0.00,OVC,,0.12,WeatherDisplay:10.37,2013-08-18 03:00:00,
2013-08-17 23:10:00,65.5,64.6,30.12,WSW,250,0.0,0.0,97,0.00,OVC,,0.12,WeatherDisplay:10.37,2013-08-18 03:10:00,
2013-08-17 23:20:00,65.5,64.7,30.12,WSW,250,0.0,1.0,97,0.00,OVC,,0.12,WeatherDisplay:10.37,2013-08-18 03:20:00,
2013-08-17 23:30:00,65.5,64.6,30.12,WSW,250,0.0,1.0,97,0.00,OVC,,0.12,WeatherDisplay:10.37,2013-08-18 03:30:00,
2013-08-17 23:40:00,65.5,64.6,30.12,WSW,250,0.0,0.0,97,0.00,OVC,,0.12,WeatherDisplay:10.37,2013-08-18 03:40:00,
2013-08-17 23:50:00,65.6,64.7,30.12,WSW,250,0.0,1.0,97,0.00,OVC,,0.12,WeatherDisplay:10.37,2013-08-18 03:50:00,